MORELOS 2 R/B(PAM-D), 16293

Orbit data source: Space-Track

MORELOS 2 R/B(PAM-D), 16293 is space debris in HEO originally from a launch on Wed, 27 Nov 1985 UTC launched from the Air Force Eastern Test Range (AFETR). Debris objects in space refer to the collection of defunct objects orbiting the Earth. Examples of debris include non-operational satellites, rocket bodies, and fragments generated from explosions, collisions, or faulty payload assembly.

Loading next visibility...
Identifier
16293, 1985-109F
Orbit
HEO
Last TLE update
19 hours ago
Origin
Manufacturer
Thiokol/TE
Mission
Spacecraft
Bus & Motor
STAR 48, Unknown motor
Mass
132 kg wet, 132 kg dry
Launch date (UTC)
1985-11-27 (40 years ago)
Launch vehicle
Unknown
Launch site
Air Force Eastern Test Range (AFETR)
Object type
Payload
Rocket body
Debris
Shape & HBR
Sphere + Cone, 2.3 m
Radar Cross Section
2.822 m², Large (>1 m²)

Expand to show TLE details & history

TLE from 19 hours ago
0 MORELOS 2 R/B(PAM-D)
1 16293U 85109F   25183.73045328  .00000755  00000-0  13406-2 0  9998
2 16293  26.0399 315.6081 7159864 192.6310 129.0253  2.37275821272479
Epoch: 2025-07-02T17:31Z
TLE epoch observation values (Epoch: 2025-07-02T17:31:51.163Z)
Latitude
0.00001°
Longitude
131.64306°
Altitude
32,050.393 km
Speed
1.99 km/s
True Right ascension
21h 02m 27s
True Declination
0° 00' 00"
Sunlit
Object was in daylight at epoch
Visualization orbit readout
Latitude
-5.66031°
Longitude
119.6605°
Altitude
26,083.495 km
Speed
2.788 km/s
Apparent Right ascension
19h 41m 54s
Apparent Declination
-13° 30' 49"
Sunlit
Object is in daylight
Visualization observer readout
Local Sidereal Time
00:18:59
Azimuth
246.255° WSW
Elevation
6.546°
Doppler factor
1
Orbital elements
Apogee altitude
34,374.074 km
Perigee altitude
366.778 km
Semi-major axis
23,748.563 km
Eccentricity
0.71599
Inclination
26.0399°
RAAN
315.6081°
Arg. of periapsis
192.631°
True anomaly
Unknown
Mean anomaly
129.0253°
Eccentric anomaly
Unknown
Mean motion
0.59304 °/min
Orbital period
607.04 mins
BSTAR
0.0013406
Loading maneuver chart data...
Loading SW <> Apogee altitude chart data...
Loading historical data...
Loading historical data...
Loading historical data...
Loading historical data...
Loading historical data...
Loading historical data...
Loading historical data...

MORELOS 2 R/B(PAM-D) Visibility forecast

Observer location: undefined°, undefined°

Span
Click to sort rows by Start time (UTC) header in descending order
Start Az.
Max El. time (UTC)
Max El. Az.
Max El.
End time (UTC)
End Az.
13 mins2025-07-03 19:49:19.092Z267.868° W2025-07-03 19:58:19.092Z246.152° WSW12.93°2025-07-03 20:02:19.092Z225.792° WSW
315 mins2025-07-04 07:17:19.092Z195.128° SSW2025-07-04 11:26:19.092Z215.776° SW35.012°2025-07-04 12:32:19.092Z229.473° WSW
|